Orbital Elements at Epoch 2459200.5 (2020-Dec-17.0) TDB
Reference: JPL 23 (heliocentric ecliptic J2000)
Element | Value | Uncertainty (1-sigma) | Units |
e | .06163505852899724 | 5.9267e-08 | |
a | 2.575691021352479 | 1.7585e-08 | au |
q | 2.416938154498807 | 1.5529e-07 | au |
i | 14.65526024260774 | 6.8387e-06 | deg |
node | 206.381268256402 | 1.5051e-05 | deg |
peri | 37.69998805635656 | 4.6485e-05 | deg |
M | 32.5785316870468 | 4.0398e-05 | deg |
tp | 2459063.863075230829 (2020-Aug-02.36307523) | 0.00016984 | TDB |
period | 1509.868320322706 4.13 | 1.5462e-05 4.233e-08 | d yr |
n | .2384313884558203 | 2.4417e-09 | deg/d |
Q | 2.734443888206152 | 1.8669e-08 | au |
|
| | Orbit Determination Parameters
Additional Information
|